Burbank, CA

3:01 PM PDT on August 20, 2017 (GMT -0700)
Burbank-Glendale-Pasadena

Weather History for KBUR - February, 2012

Change the Weather History Date:

Monday, February 27, 2012

  Actual Average Record
Temperature  
Mean Temperature 49 °F 57 °F  
Max Temperature 54 °F 69 °F 86 °F (1972)
Min Temperature 44 °F 45 °F 32 °F (1971)
Degree Days  
Heating Degree Days 16 8  
Month to date heating degree days 227 250  
Since 1 July heating degree days 1051 1133  
Cooling Degree Days 0 0  
Month to date cooling degree days 0 0  
Year to date cooling degree days 8 2  
Moisture  
Dew Point 40 °F    
Average Humidity 66    
Maximum Humidity 77    
Minimum Humidity 54    
Precipitation  
Precipitation T in 0.15 in 1.61 in (2010)
Month to date precipitation 0.06 4.34  
Year to date precipitation 0.91 7.87  
Since 1 July precipitation 4.20  
Sea Level Pressure  
Sea Level Pressure 29.84 in    
Wind  
Wind Speed 10 mph (SSW)    
Max Wind Speed 21 mph    
Max Gust Speed 26 mph    
Visibility 10 miles    
Events Rain    
T = Trace of Precipitation, MM = Missing Value Source: NWS Daily Summary

Daily Weather History Graph

Daily Weather History Graph

Search for Another Location

Airport or City:

Trip Planner

Search our weather history database for the weather conditions in past years. The results will help you decide how hot, cold, wet, or windy it might be!

Date:

Astronomy

Feb. 27, 2012 Rise Set
Actual Time 6:25 AM PST 5:47 PM PST
Civil Twilight 6:00 AM PST 6:12 PM PST
Nautical Twilight 5:30 AM PST 6:41 PM PST
Astronomical Twilight 5:01 AM PST 7:11 PM PST
Moon 9:15 AM PST (2/27) 11:26 PM PST (2/27)
Length of Visible Light 12h 12m
Length of Day
11h 22m
Waxing Crescent, 30% of the Moon is Illuminated
Feb 27
Waxing Crescent
Feb 29
First Quarter
Mar 8
Full
Mar 14
Last Quarter
Mar 22
New

Hourly Weather History & Observations

Time (PST) Temp. Windchill Dew Point Humidity Pressure Visibility Wind Dir Wind Speed Gust Speed Precip Events Conditions
12:53 AM 53.1 °F - 43.0 °F 69% 29.87 in 10.0 mi SE 13.8 mph - N/A   Overcast
1:53 AM 53.1 °F - 43.0 °F 69% 29.88 in 10.0 mi SSE 8.1 mph - N/A   Mostly Cloudy
2:53 AM 52.0 °F - 45.0 °F 77% 29.86 in 10.0 mi SE 10.4 mph - N/A   Mostly Cloudy
3:53 AM 52.0 °F - 45.0 °F 77% 29.83 in 10.0 mi SE 11.5 mph - N/A   Scattered Clouds
4:09 AM 51.8 °F - 44.6 °F 76% 29.86 in 10.0 mi SE 11.5 mph - N/A   Mostly Cloudy
4:53 AM 52.0 °F - 45.0 °F 77% 29.85 in 10.0 mi ESE 9.2 mph - N/A   Overcast
5:53 AM 51.1 °F - 45.0 °F 80% 29.83 in 10.0 mi South 10.4 mph - N/A   Mostly Cloudy
6:53 AM 51.1 °F - 45.0 °F 80% 29.84 in 10.0 mi South 8.1 mph - N/A   Overcast
7:06 AM 51.8 °F - 44.6 °F 76% 29.86 in 10.0 mi South 6.9 mph - N/A   Overcast
7:13 AM 50.0 °F - 44.6 °F 82% 29.86 in 10.0 mi South 6.9 mph - N/A   Overcast
7:20 AM 50.0 °F - 44.6 °F 82% 29.86 in 10.0 mi South 4.6 mph - N/A   Overcast
7:53 AM 51.1 °F - 43.0 °F 74% 29.85 in 10.0 mi South 9.2 mph - N/A   Overcast
8:53 AM 52.0 °F - 43.0 °F 71% 29.85 in 10.0 mi SE 13.8 mph - N/A   Overcast
9:53 AM 53.1 °F - 39.0 °F 59% 29.84 in 10.0 mi SE 13.8 mph - N/A   Mostly Cloudy
10:53 AM 51.1 °F - 41.0 °F 68% 29.84 in 10.0 mi SSW 12.7 mph - 0.00 in Rain Rain
11:53 AM 53.1 °F - 37.9 °F 57% 29.83 in 10.0 mi South 16.1 mph 23.0 mph 0.00 in   Overcast
12:53 PM 53.1 °F - 41.0 °F 64% 29.81 in 10.0 mi South 12.7 mph 24.2 mph N/A   Mostly Cloudy
1:53 PM 51.1 °F - 37.0 °F 59% 29.81 in 10.0 mi SSW 13.8 mph - N/A   Mostly Cloudy
2:53 PM 51.1 °F - 37.0 °F 59% 29.81 in 10.0 mi SSW 9.2 mph - N/A   Overcast
3:44 PM 51.8 °F - 35.6 °F 54% 29.81 in 10.0 mi West 9.2 mph 17.3 mph N/A   Overcast
3:53 PM 51.1 °F - 35.1 °F 54% 29.80 in 10.0 mi WSW 9.2 mph - N/A   Overcast
4:53 PM 50.0 °F - 36.0 °F 59% 29.80 in 10.0 mi West 10.4 mph - N/A   Overcast
5:53 PM 48.9 °F - 37.0 °F 64% 29.81 in 10.0 mi WSW 9.2 mph - N/A   Scattered Clouds
6:53 PM 48.0 °F - 36.0 °F 63% 29.81 in 10.0 mi West 11.5 mph - N/A   Scattered Clouds
7:53 PM 46.9 °F - 37.0 °F 68% 29.83 in 10.0 mi West 10.4 mph - N/A   Partly Cloudy
8:53 PM 46.9 °F - 37.0 °F 68% 29.86 in 10.0 mi WSW 3.5 mph - N/A   Mostly Cloudy
9:23 PM 46.4 °F 41.9 °F 35.6 °F 66% 29.89 in 10.0 mi West 9.2 mph - N/A   Mostly Cloudy
9:53 PM 46.0 °F 40.6 °F 33.1 °F 61% 29.89 in 10.0 mi West 11.5 mph - N/A   Scattered Clouds
10:53 PM 44.1 °F 39.5 °F 32.0 °F 63% 29.89 in 10.0 mi SW 8.1 mph - N/A   Partly Cloudy
11:53 PM 44.1 °F - 32.0 °F 63% 29.92 in 10.0 mi Calm Calm - N/A   Mostly Cloudy